When you browse on this site, cookies collect data to enhance your experience and personalize the content and advertising you see.
Visit our Privacy Policy to learn more. By continuing to use the site, you agree to this use of cookies and data.
  • In Romania
  • List of Countries
  • For 7 days
  • Water Temperature
  • Weather Map
  • Weather Widgets
  • user-avatar
    Login

    Hourly Weather Proshkovo

    Today, 18 September, Wednesday

    Time Temperature Precipitation Wind Pressure Humidity
    00:00 +6°C° 0 mm 1 mps 735 mmHg 98%
    01:00 +6°C° 0 mm 1 mps 735 mmHg 97%
    02:00 +6°C° 0 mm 1 mps 735 mmHg 97%
    03:00 +6°C° 0 mm 1 mps 735 mmHg 97%
    04:00 +5°C° 0 mm 0 mps 735 mmHg 97%
    05:00 +5°C° 0 mm 0 mps 735 mmHg 96%
    06:00 +6°C° 0 mm 0 mps 735 mmHg 96%
    07:00 +7°C° 0 mm 1 mps 735 mmHg 95%
    08:00 +8°C° 0 mm 1 mps 736 mmHg 94%
    09:00 +9°C° 0.1 mm 1 mps 736 mmHg 88%
    10:00 +10°C° 0.1 mm 2 mps 736 mmHg 83%
    11:00 +12°C° 0.1 mm 2 mps 736 mmHg 77%
    12:00 +12°C° 0.1 mm 2 mps 737 mmHg 73%
    13:00 +12°C° 0.1 mm 3 mps 737 mmHg 68%
    14:00 +12°C° 0.1 mm 3 mps 737 mmHg 63%
    15:00 +11°C° 0.3 mm 3 mps 738 mmHg 71%
    16:00 +10°C° 0.3 mm 3 mps 738 mmHg 79%
    17:00 +9°C° 0.3 mm 2 mps 739 mmHg 86%
    18:00 +8°C° 0.1 mm 2 mps 739 mmHg 90%
    19:00 +7°C° 0.1 mm 2 mps 740 mmHg 93%
    20:00 +6°C° 0.1 mm 2 mps 740 mmHg 96%
    21:00 +6°C° 0 mm 2 mps 741 mmHg 97%
    22:00 +6°C° 0 mm 2 mps 741 mmHg 97%
    23:00 +5°C° 0 mm 2 mps 742 mmHg 98%

    Tomorrow, 19 September, Thursday

    Time Temperature Precipitation Wind Pressure Humidity
    00:00 +5°C° 0 mm 2 mps 742 mmHg 98%
    01:00 +5°C° 0 mm 2 mps 743 mmHg 97%
    02:00 +4°C° 0 mm 2 mps 743 mmHg 97%
    03:00 +4°C° 0 mm 2 mps 744 mmHg 97%
    04:00 +3°C° 0 mm 2 mps 744 mmHg 97%
    05:00 +3°C° 0 mm 2 mps 745 mmHg 97%
    06:00 +3°C° 0 mm 2 mps 745 mmHg 96%
    07:00 +4°C° 0 mm 2 mps 746 mmHg 95%
    08:00 +4°C° 0 mm 2 mps 746 mmHg 94%
    09:00 +5°C° 0.1 mm 2 mps 746 mmHg 89%
    10:00 +6°C° 0.1 mm 2 mps 747 mmHg 85%
    11:00 +7°C° 0.1 mm 2 mps 747 mmHg 81%
    12:00 +8°C° 0.1 mm 2 mps 747 mmHg 76%
    13:00 +8°C° 0.1 mm 2 mps 747 mmHg 71%
    14:00 +9°C° 0.1 mm 3 mps 747 mmHg 65%
    15:00 +8°C° 0 mm 2 mps 747 mmHg 67%
    16:00 +8°C° 0 mm 2 mps 747 mmHg 69%
    17:00 +8°C° 0 mm 1 mps 747 mmHg 71%
    18:00 +7°C° 0 mm 1 mps 748 mmHg 75%
    19:00 +5°C° 0 mm 0 mps 748 mmHg 78%
    20:00 +3°C° 0 mm 0 mps 748 mmHg 82%
    21:00 +3°C° 0.1 mm 0 mps 748 mmHg 83%
    22:00 +3°C° 0.1 mm 0 mps 748 mmHg 84%
    23:00 +4°C° 0.1 mm 1 mps 748 mmHg 85%

    Day after tomorrow, 20 September, Friday

    Time Temperature Precipitation Wind Pressure Humidity
    00:00 +3°C° 0.1 mm 0 mps 748 mmHg 88%
    01:00 +3°C° 0.1 mm 0 mps 748 mmHg 90%
    02:00 +3°C° 0.1 mm 0 mps 748 mmHg 92%
    03:00 +3°C° 0 mm 0 mps 748 mmHg 93%
    04:00 +3°C° 0 mm 1 mps 747 mmHg 94%
    05:00 +3°C° 0 mm 1 mps 747 mmHg 94%
    06:00 +4°C° 0 mm 1 mps 748 mmHg 91%
    07:00 +5°C° 0 mm 1 mps 748 mmHg 87%
    08:00 +4°C° 0 mm 2 mps 748 mmHg 83%
    09:00 +5°C° 0 mm 2 mps 749 mmHg 80%
    10:00 +5°C° 0 mm 3 mps 749 mmHg 76%
    11:00 +7°C° 0 mm 3 mps 749 mmHg 72%
    12:00 +8°C° 0.2 mm 3 mps 750 mmHg 70%
    13:00 +8°C° 0.2 mm 3 mps 750 mmHg 67%
    14:00 +9°C° 0.2 mm 3 mps 750 mmHg 65%
    15:00 +8°C° 0.1 mm 3 mps 750 mmHg 69%
    16:00 +8°C° 0.1 mm 2 mps 750 mmHg 73%
    17:00 +7°C° 0.1 mm 2 mps 751 mmHg 78%
    18:00 +5°C° 0 mm 2 mps 751 mmHg 84%
    19:00 +4°C° 0 mm 2 mps 752 mmHg 90%
    20:00 +3°C° 0 mm 2 mps 752 mmHg 95%
    21:00 +2°C° 0 mm 2 mps 753 mmHg 96%
    22:00 +2°C° 0 mm 2 mps 753 mmHg 96%
    23:00 +2°C° 0 mm 1 mps 753 mmHg 96%

    21 September, Saturday

    Time Temperature Precipitation Wind Pressure Humidity
    00:00 +2°C° 0 mm 1 mps 754 mmHg 96%
    01:00 +2°C° 0 mm 1 mps 754 mmHg 96%
    02:00 +1°C° 0 mm 1 mps 754 mmHg 96%
    03:00 +1°C° 0 mm 1 mps 754 mmHg 96%
    04:00 +1°C° 0 mm 1 mps 754 mmHg 96%
    05:00 0°C° 0 mm 1 mps 754 mmHg 96%
    06:00 +2°C° 0 mm 1 mps 754 mmHg 92%
    07:00 +3°C° 0 mm 1 mps 754 mmHg 87%
    08:00 +4°C° 0 mm 1 mps 754 mmHg 83%
    09:00 +4°C° 0 mm 2 mps 754 mmHg 75%
    10:00 +6°C° 0 mm 2 mps 754 mmHg 67%
    11:00 +7°C° 0 mm 3 mps 753 mmHg 59%
    12:00 +7°C° 0 mm 3 mps 753 mmHg 62%
    13:00 +6°C° 0 mm 4 mps 752 mmHg 65%
    14:00 +6°C° 0 mm 5 mps 751 mmHg 67%
    15:00 +6°C° 0.8 mm 5 mps 750 mmHg 77%
    16:00 +5°C° 0.8 mm 5 mps 749 mmHg 86%
    17:00 +3°C° 0.8 mm 5 mps 748 mmHg 95%
    18:00 +5°C° 1.9 mm 5 mps 747 mmHg 96%
    19:00 +6°C° 1.9 mm 5 mps 746 mmHg 96%
    20:00 +7°C° 1.9 mm 5 mps 746 mmHg 97%
    21:00 +8°C° 0.5 mm 5 mps 745 mmHg 96%
    22:00 +8°C° 0.5 mm 5 mps 744 mmHg 95%
    23:00 +9°C° 0.5 mm 5 mps 744 mmHg 94%

    22 September, Sunday

    Time Temperature Precipitation Wind Pressure Humidity
    00:00 +9°C° 0.1 mm 6 mps 744 mmHg 94%
    01:00 +9°C° 0.1 mm 6 mps 744 mmHg 93%
    02:00 +9°C° 0.1 mm 6 mps 743 mmHg 93%
    03:00 +9°C° 0.2 mm 6 mps 744 mmHg 92%
    04:00 +9°C° 0.2 mm 6 mps 744 mmHg 92%
    05:00 +9°C° 0.2 mm 6 mps 744 mmHg 91%
    06:00 +8°C° 0.2 mm 6 mps 745 mmHg 87%
    07:00 +7°C° 0.2 mm 6 mps 745 mmHg 82%
    08:00 +5°C° 0.2 mm 6 mps 746 mmHg 77%
    09:00 +5°C° 0 mm 6 mps 746 mmHg 69%
    10:00 +7°C° 0 mm 6 mps 747 mmHg 60%
    11:00 +8°C° 0 mm 6 mps 747 mmHg 51%
    12:00 +8°C° 0 mm 6 mps 747 mmHg 50%
    13:00 +9°C° 0 mm 6 mps 747 mmHg 48%
    14:00 +9°C° 0 mm 6 mps 748 mmHg 46%
    15:00 +9°C° 0 mm 5 mps 748 mmHg 51%
    16:00 +8°C° 0 mm 4 mps 748 mmHg 57%
    17:00 +8°C° 0 mm 3 mps 748 mmHg 62%
    18:00 +7°C° 0 mm 3 mps 749 mmHg 67%
    19:00 +4°C° 0 mm 3 mps 749 mmHg 72%
    20:00 +4°C° 0 mm 2 mps 750 mmHg 77%
    21:00 +3°C° 0 mm 2 mps 750 mmHg 79%
    22:00 +3°C° 0 mm 2 mps 750 mmHg 81%
    23:00 +3°C° 0 mm 1 mps 750 mmHg 84%

    23 September, Monday

    Time Temperature Precipitation Wind Pressure Humidity
    00:00 +3°C° 0 mm 1 mps 750 mmHg 84%
    01:00 +3°C° 0 mm 1 mps 751 mmHg 84%
    02:00 +3°C° 0 mm 1 mps 751 mmHg 83%
    03:00 +3°C° 0 mm 1 mps 751 mmHg 83%
    04:00 +3°C° 0 mm 1 mps 751 mmHg 83%
    05:00 +3°C° 0 mm 1 mps 751 mmHg 83%
    06:00 +4°C° 0 mm 1 mps 751 mmHg 79%
    07:00 +5°C° 0 mm 1 mps 751 mmHg 74%
    08:00 +6°C° 0 mm 1 mps 751 mmHg 70%
    09:00 +6°C° 0 mm 1 mps 751 mmHg 66%
    10:00 +7°C° 0 mm 1 mps 751 mmHg 62%
    11:00 +8°C° 0 mm 1 mps 751 mmHg 58%
    12:00 +8°C° 0 mm 1 mps 751 mmHg 60%
    13:00 +8°C° 0 mm 1 mps 751 mmHg 62%
    14:00 +8°C° 0 mm 1 mps 750 mmHg 64%
    15:00 +7°C° 0 mm 1 mps 750 mmHg 67%
    16:00 +7°C° 0 mm 1 mps 750 mmHg 71%
    17:00 +7°C° 0 mm 1 mps 750 mmHg 74%
    18:00 +6°C° 0 mm 1 mps 750 mmHg 78%
    19:00 +4°C° 0 mm 1 mps 750 mmHg 82%
    20:00 +3°C° 0 mm 1 mps 750 mmHg 87%
    21:00 +3°C° 0 mm 1 mps 750 mmHg 88%
    22:00 +2°C° 0 mm 1 mps 750 mmHg 90%
    23:00 +2°C° 0 mm 1 mps 751 mmHg 92%
    Show more